Location: Grand Lay
(47.3253°N, 0.9468°E)
Time: 21:34:59
(UTC+00:00)

NOAA 12 - Pass Details

Date: 18 January 2026
Orbit: 793 x 813 km, 98.6° (Epoch: 17 February)

Event Time Altitude Azimuth Distance (km) Brightness Sun altitude
Rises 05:01:27 0° 15° (NNE) 3,305 7.4 -25.8°
Reaches altitude 10° 05:03:48 10° 17° (NNE) 2,371 6.7 -25.4°
Maximum altitude 05:09:02 75° 104° (ESE) 826 4.2 -24.6°
Drops below altitude 10° 05:14:14 10° 189° (S) 2,358 6.5 -23.7°
Sets 05:16:34 0° 191° (SSW) 3,286 7.2 -23.3°
